Wind_Speed
24 24 25 27 27 27 26 26 26 24 24 23 22 22 22 22 22 22 22 22 22 22 23 24 24 24 24 23 24 24 24 23 23 23 23 24 24 23 23 23 23 24 24 25
26 26 27 27 27 28 29 28 27 26 26 25 25 23 23 23 24 23 24 24 25 26 25 26 26 26 26 25 26 26 26 25 25 25 25 25 25 25 25 25 24 25 26 26
27 28 29 29 27 28 29 29 28 28 27 27 26 25 24 24 24 24 25 26 26 27 26 27 28 28 28 27 28 28 28 28 28 28 27 27 27 27 27 27 26 26 27 27
27 28 30 28 27 27 28 28 28 29 28 28 28 28 27 25 25 25 26 26 27 27 27 28 28 29 29 30 29 29 29 29 29 29 29 29 29 28 28 28 28 27 28 28
27 28 28 26 26 27 27 28 28 29 28 29 29 28 27 26 26 27 27 28 28 29 29 29 30 30 31 31 30 30 30 30 30 30 31 31 31 30 30 29 30 29 29 30
28 29 28 27 27 28 28 28 28 28 28 29 29 29 28 27 27 28 28 28 28 29 29 30 30 31 30 30 30 30 31 31 31 32 32 32 32 32 31 31 31 31 32 32
28 28 28 27 26 26 27 26 26 27 27 28 29 29 28 28 28 29 28 28 29 28 28 29 30 30 30 30 30 30 31 32 32 33 33 33 33 33 32 32 32 33 33 33
27 28 28 26 26 26 27 27 27 27 27 28 29 29 30 29 29 30 30 29 29 30 30 30 30 31 31 30 30 31 31 32 32 33 32 32 33 34 34 33 34 33 34 34
27 27 27 27 27 27 27 27 27 27 28 29 29 29 29 29 30 31 31 30 30 31 31 31 30 30 30 30 31 31 32 32 33 33 32 33 34 33 34 34 34 35 35 35
28 27 27 27 27 27 27 27 27 28 28 29 28 28 29 30 30 31 31 31 32 31 31 30 30 30 30 31 32 32 32 32 33 33 33 34 33 33 33 34 34 35 35 35
27 26 26 26 26 26 27 27 27 27 28 27 28 28 28 29 30 31 31 31 32 31 30 30 30 30 30 30 31 32 32 33 33 33 33 33 32 32 33 34 34 35 36 36
27 27 26 25 26 26 26 26 26 26 27 27 27 28 28 29 29 29 30 31 31 30 29 29 30 29 29 29 30 31 32 32 33 32 32 32 32 32 33 34 35 35 35 35
27 27 26 26 26 26 26 26 27 27 26 27 28 28 28 29 29 29 30 31 30 30 29 30 30 30 30 29 31 31 32 32 32 32 32 31 32 32 33 35 35 35 35 34
25 25 26 26 26 26 25 25 26 27 27 27 28 29 30 31 31 31 31 31 30 30 30 30 30 31 30 30 31 31 32 33 32 32 32 32 32 33 34 34 34 35 35 35
26 26 26 26 26 26 26 26 27 26 27 27 28 29 30 31 31 32 32 31 30 30 30 31 31 30 29 30 31 32 33 33 33 34 33 33 33 34 35 35 34 34 34 34
27 27 27 27 27 27 27 27 27 26 27 27 27 27 28 29 29 30 30 31 31 30 30 30 31 31 31 30 31 32 33 33 33 34 34 34 34 35 35 34 33 33 33 34
29 28 28 28 28 28 28 28 27 27 28 28 28 27 27 28 28 29 29 30 30 30 31 31 32 31 31 32 32 33 33 33 33 33 34 34 35 35 34 34 33 33 33 33
29 29 29 29 29 29 28 28 28 28 28 29 29 28 28 29 29 29 29 29 30 31 32 32 32 32 32 32 32 32 33 32 32 33 33 34 34 33 33 33 32 32 31 31
29 29 29 29 29 28 28 28 28 28 28 28 29 29 29 30 30 29 29 30 30 31 31 31 32 31 31 31 31 31 32 32 33 33 33 33 33 32 32 31 31 30 30 30
29 29 29 29 29 29 29 29 29 29 29 29 29 29 29 29 29 29 29 30 30 31 31 30 30 30 30 30 30 30 31 31 32 31 31 31 31 31 31 30 30 29 29 29
28 29 28 28 28 28 29 29 29 29 29 29 29 29 29 29 30 30 30 29 30 30 30 30 30 30 30 30 30 30 30 30 30 31 31 31 31 31 30 29 28 28 28 28
26 27 27 26 26 27 28 28 29 29 29 29 29 29 29 29 29 29 28 29 29 29 30 30 30 29 29 29 29 29 29 29 29 30 30 30 29 28 27 27 27 27 27 27
25 25 25 25 26 26 27 28 28 28 29 29 29 29 29 29 28 28 28 28 29 29 29 30 30 29 29 30 30 29 29 29 29 29 29 29 28 27 27 27 27 27 27 28
24 24 24 25 26 27 27 27 28 28 28 29 29 29 29 28 28 29 29 29 29 29 29 29 29 29 29 29 29 29 28 28 28 28 27 27 27 27 27 27 27 27 27 27
24 24 25 26 27 27 27 27 27 27 28 28 28 28 28 29 29 29 29 30 30 30 29 29 29 29 29 29 28 28 28 28 27 27 27 27 26 27 27 27 27 27 26 26
22 23 24 25 26 27 26 26 26 26 26 26 27 28 28 29 29 30 30 29 29 29 29 29 28 28 28 28 28 27 27 27 27 28 28 27 27 27 26 26 26 26 26 26
22 23 23 24 25 25 25 26 25 25 25 25 26 27 27 27 28 28 28 28 28 28 28 28 28 28 27 27 27 27 27 27 28 28 28 27 27 26 26 26 25 25 26 26
Wind_Direction
252 254 255 255 258 260 263 266 267 269 273 278 278 280 280 280 280 280 282 285 286 286 285 285 286 288 289 287 290 289 286 286 287 287 286 286 287 285 284 287 289 290 290 292
253 255 256 257 258 261 263 265 266 267 270 276 278 279 278 277 278 279 282 284 284 284 284 284 285 285 287 288 289 289 289 289 287 286 285 286 288 287 285 287 288 288 289 290
258 259 260 260 260 260 262 264 265 266 269 273 274 277 278 278 277 279 282 283 283 283 280 282 282 283 284 285 287 287 289 291 290 288 285 286 287 288 288 288 289 291 291 291
262 262 262 264 262 262 263 263 263 264 268 271 274 275 278 278 279 280 282 283 285 284 284 283 283 281 281 283 285 286 288 288 289 288 286 286 287 288 288 288 289 291 292 292
264 264 264 262 263 263 264 263 264 266 268 270 273 274 276 279 280 280 281 283 285 285 282 283 283 282 281 282 283 285 286 287 287 287 287 287 287 286 287 288 289 290 290 292
264 266 263 264 264 265 266 266 267 269 269 269 270 272 275 277 278 279 281 282 284 285 284 284 284 283 282 284 285 285 285 285 285 285 286 286 286 286 286 287 287 289 290 291
264 265 265 267 267 267 266 268 268 269 270 270 270 272 274 274 276 279 280 282 284 285 286 284 284 285 285 286 287 285 284 283 283 284 284 284 286 286 286 286 286 288 290 291
263 265 266 267 267 266 268 268 268 269 270 271 271 272 273 275 277 279 281 282 284 286 287 287 287 287 287 286 285 284 284 285 284 283 284 285 286 286 285 287 288 288 288 289
263 267 269 266 266 267 268 268 268 268 270 273 273 273 274 276 277 278 280 281 283 286 288 287 287 287 288 288 288 287 286 286 285 285 285 286 286 286 287 288 288 288 289 289
263 266 268 266 267 266 267 268 268 269 271 273 275 276 276 277 278 279 280 282 283 285 286 286 287 287 288 288 287 287 288 288 288 288 286 287 287 287 288 288 288 289 289 289
265 267 268 269 270 269 268 267 270 272 272 274 276 276 277 278 278 280 281 283 286 287 288 288 288 288 287 287 288 290 290 289 289 289 288 287 288 288 288 288 289 290 291 291
264 265 266 268 269 270 269 268 270 272 273 273 275 277 278 280 281 282 284 285 286 289 289 288 288 288 289 289 290 291 291 291 291 291 290 289 289 289 289 291 292 292 293 293
262 262 264 265 267 268 270 270 271 273 276 277 275 276 278 280 283 284 284 285 286 289 290 289 288 289 290 291 291 292 293 293 292 292 291 291 290 290 290 291 292 291 292 292
261 262 263 263 266 268 271 274 275 275 276 278 278 277 279 281 283 286 288 287 288 290 289 288 288 288 289 290 292 292 293 295 293 293 294 294 293 293 294 293 292 291 291 292
258 260 262 264 265 269 271 275 276 276 277 278 278 279 279 281 283 285 287 288 288 289 289 288 288 288 290 291 291 292 293 293 293 293 294 295 295 293 295 294 293 292 291 291
257 259 262 264 266 268 270 272 273 275 277 278 281 282 283 283 284 284 285 287 290 291 291 291 291 291 292 292 293 295 295 293 293 293 293 293 294 295 295 296 294 294 293 292
258 260 262 264 267 268 270 271 272 275 276 278 281 282 283 284 285 285 286 288 290 291 292 293 294 294 294 294 294 295 294 294 294 294 294 294 295 295 295 294 294 294 294 294
259 262 264 266 268 268 269 271 273 274 275 277 279 281 283 285 285 285 286 288 290 291 292 292 292 292 293 295 295 295 295 294 294 295 295 296 296 295 295 295 294 295 295 295
259 261 263 266 267 268 269 271 273 274 276 278 279 281 283 285 287 288 289 290 291 292 295 295 294 294 294 294 295 296 295 294 295 295 296 296 296 296 295 296 295 294 293 294
259 261 262 264 267 268 269 271 273 274 276 278 280 282 283 285 288 290 291 292 293 296 297 298 296 295 293 294 296 297 297 297 296 296 296 297 297 297 297 297 297 296 296 296
260 260 261 263 266 268 269 271 273 275 276 278 279 281 283 285 288 290 290 291 293 295 296 297 297 297 296 295 296 297 297 297 296 296 296 297 297 298 298 299 299 299 298 298
260 260 260 262 265 268 269 271 273 274 275 276 279 281 284 286 289 292 292 292 294 295 296 297 297 298 298 297 297 297 297 298 298 298 297 298 300 300 300 301 300 300 299 298
259 259 261 263 266 268 269 271 273 274 274 275 278 282 284 286 288 291 291 292 294 294 295 297 297 298 299 299 298 297 297 297 299 299 299 299 302 302 301 301 302 303 301 300
260 260 261 263 266 268 271 273 274 274 275 276 279 281 282 284 286 288 290 292 294 295 295 296 295 296 297 298 298 298 298 299 301 302 303 303 302 301 302 303 303 304 303 303
262 263 264 265 267 270 273 275 277 278 278 278 280 282 283 284 286 288 290 291 293 294 295 295 295 296 297 297 297 298 299 300 302 303 303 302 301 301 302 303 304 304 304 304
267 266 267 268 269 271 274 277 280 281 282 282 283 284 285 287 289 290 291 291 292 293 294 294 294 296 298 299 300 301 301 301 301 302 302 301 302 303 303 303 304 304 303 303
269 269 270 272 274 274 276 278 282 284 285 285 286 286 287 288 289 290 291 290 290 291 293 294 296 297 298 299 300 300 300 300 301 302 302 302 302 302 302 303 304 304 304 304
Height
5876 5877 5878 5879 5880 5880 5881 5881 5881 5882 5882 5883 5883 5883 5882 5882 5881 5881 5880 5879 5878 5877 5876 5874 5873 5871 5870 5869 5867 5866 5865 5863 5861 5860 5858 5857 5855 5854 5852 5851 5849 5847 5845 5844
5870 5871 5871 5872 5874 5874 5875 5875 5875 5876 5877 5877 5877 5877 5877 5876 5875 5875 5874 5874 5873 5871 5870 5868 5867 5865 5864 5863 5861 5860 5859 5857 5855 5854 5852 5850 5848 5847 5845 5844 5842 5840 5839 5837
5864 5865 5865 5866 5868 5868 5868 5869 5870 5870 5872 5871 5871 5871 5870 5870 5869 5868 5868 5867 5865 5864 5863 5861 5860 5859 5858 5856 5854 5853 5852 5850 5848 5846 5845 5843 5841 5840 5838 5837 5835 5833 5832 5830
5857 5859 5858 5863 5861 5862 5862 5863 5863 5864 5864 5864 5864 5864 5864 5863 5862 5862 5861 5859 5858 5856 5855 5854 5853 5851 5850 5849 5847 5846 5844 5843 5841 5839 5837 5836 5834 5833 5831 5829 5828 5826 5824 5822
5851 5851 5852 5854 5854 5854 5855 5856 5857 5857 5857 5857 5857 5857 5857 5856 5855 5854 5853 5852 5850 5849 5848 5846 5845 5844 5842 5841 5839 5838 5836 5835 5833 5831 5830 5828 5826 5824 5823 5821 5820 5818 5816 5814
5844 5844 5845 5848 5848 5847 5849 5849 5850 5849 5850 5849 5849 5850 5850 5849 5848 5847 5846 5844 5843 5841 5840 5838 5837 5835 5834 5833 5831 5830 5828 5827 5825 5823 5822 5820 5818 5816 5814 5813 5811 5809 5807 5805
5837 5837 5838 5840 5841 5841 5842 5843 5843 5842 5842 5841 5841 5842 5842 5840 5840 5839 5838 5837 5835 5834 5832 5830 5829 5828 5826 5824 5823 5821 5820 5818 5816 5814 5812 5811 5809 5807 5805 5804 5802 5800 5798 5796
5831 5831 5834 5833 5834 5835 5834 5834 5835 5834 5834 5834 5834 5833 5833 5832 5832 5831 5830 5829 5827 5826 5824 5822 5820 5819 5818 5816 5814 5812 5811 5809 5807 5805 5803 5801 5800 5798 5796 5794 5793 5791 5788 5786
5825 5827 5826 5826 5826 5827 5827 5827 5827 5827 5827 5826 5826 5825 5825 5824 5824 5823 5822 5820 5819 5817 5816 5814 5811 5809 5808 5806 5804 5802 5801 5799 5797 5795 5793 5792 5790 5788 5786 5784 5783 5781 5779 5776
5817 5818 5818 5819 5819 5819 5819 5820 5820 5819 5819 5819 5818 5818 5817 5816 5815 5814 5813 5812 5810 5809 5807 5804 5802 5800 5799 5797 5794 5792 5791 5789 5787 5785 5783 5782 5780 5779 5777 5775 5772 5770 5768 5766
5810 5811 5811 5812 5812 5812 5812 5812 5812 5812 5811 5811 5810 5810 5809 5808 5807 5806 5805 5803 5801 5799 5797 5795 5793 5792 5789 5787 5785 5783 5781 5779 5778 5776 5773 5772 5771 5769 5767 5764 5762 5760 5758 5755
5803 5804 5804 5805 5805 5805 5805 5805 5805 5804 5804 5803 5803 5802 5801 5800 5799 5797 5796 5794 5793 5791 5789 5786 5784 5783 5781 5778 5776 5774 5772 5770 5768 5767 5764 5763 5761 5759 5757 5755 5752 5750 5747 5745
5795 5796 5797 5797 5797 5797 5798 5798 5798 5797 5796 5796 5795 5794 5793 5792 5791 5790 5788 5786 5784 5782 5780 5778 5776 5774 5772 5770 5767 5765 5763 5761 5759 5757 5755 5753 5751 5749 5748 5745 5742 5739 5737 5734
5787 5788 5789 5790 5790 5790 5790 5790 5790 5790 5789 5788 5787 5786 5785 5784 5783 5781 5779 5778 5775 5773 5771 5769 5767 5766 5764 5762 5759 5757 5755 5753 5750 5748 5746 5744 5742 5740 5737 5735 5732 5730 5726 5723
5780 5781 5782 5782 5783 5783 5783 5783 5783 5782 5781 5781 5780 5778 5777 5776 5775 5773 5771 5769 5767 5765 5763 5761 5759 5757 5755 5753 5751 5748 5746 5744 5742 5739 5737 5734 5732 5730 5727 5724 5722 5719 5717 5714
5772 5773 5774 5775 5776 5776 5776 5776 5775 5775 5774 5773 5772 5770 5769 5767 5766 5765 5763 5761 5759 5757 5755 5753 5751 5748 5746 5744 5742 5739 5737 5735 5732 5730 5728 5725 5722 5720 5717 5715 5712 5709 5707 5704
5765 5766 5767 5767 5768 5768 5768 5768 5768 5767 5766 5765 5764 5762 5761 5760 5758 5757 5755 5753 5751 5749 5747 5745 5743 5740 5738 5735 5733 5730 5728 5725 5723 5720 5718 5715 5712 5710 5707 5705 5702 5699 5697 5694
5757 5758 5759 5759 5760 5760 5760 5760 5759 5759 5758 5757 5756 5755 5754 5752 5750 5748 5747 5745 5743 5741 5739 5737 5734 5731 5729 5726 5724 5721 5718 5716 5714 5711 5708 5705 5702 5699 5697 5694 5692 5689 5687 5684
5749 5750 5751 5751 5751 5751 5751 5751 5751 5750 5750 5749 5748 5747 5746 5744 5742 5740 5739 5737 5735 5733 5731 5728 5725 5722 5720 5717 5714 5712 5709 5707 5704 5701 5698 5696 5693 5690 5687 5684 5682 5679 5677 5675
5740 5741 5742 5743 5743 5743 5743 5743 5743 5742 5742 5741 5740 5739 5737 5736 5734 5732 5730 5728 5726 5724 5722 5719 5716 5714 5711 5709 5706 5703 5701 5698 5695 5692 5690 5687 5684 5681 5678 5675 5672 5670 5668 5666
5732 5733 5734 5734 5735 5735 5735 5735 5734 5734 5733 5732 5731 5730 5729 5727 5726 5724 5722 5720 5718 5716 5713 5711 5708 5706 5703 5700 5698 5695 5692 5689 5686 5683 5681 5678 5675 5672 5669 5666 5664 5662 5660 5658
5724 5725 5726 5727 5727 5727 5727 5726 5726 5726 5725 5724 5723 5722 5721 5720 5718 5716 5714 5712 5710 5707 5705 5703 5700 5697 5695 5692 5689 5686 5684 5681 5678 5675 5672 5669 5666 5664 5661 5658 5656 5654 5652 5650
5717 5717 5718 5719 5719 5719 5719 5719 5718 5717 5717 5716 5715 5714 5713 5712 5710 5708 5706 5704 5702 5700 5697 5695 5692 5689 5687 5684 5681 5678 5676 5673 5670 5667 5664 5661 5658 5655 5653 5651 5649 5646 5644 5641
5709 5710 5711 5711 5712 5712 5711 5711 5710 5709 5708 5708 5707 5706 5704 5703 5702 5700 5698 5696 5694 5692 5689 5687 5684 5682 5679 5676 5673 5670 5667 5664 5662 5659 5656 5653 5650 5648 5646 5643 5641 5638 5636 5633
5702 5703 5704 5704 5704 5704 5704 5703 5702 5701 5700 5700 5699 5697 5696 5695 5693 5692 5690 5688 5686 5684 5681 5679 5676 5674 5671 5668 5665 5662 5659 5657 5654 5651 5648 5646 5643 5640 5638 5636 5633 5631 5628 5626
5695 5696 5696 5696 5696 5696 5695 5695 5694 5694 5693 5691 5691 5689 5688 5686 5685 5683 5681 5679 5677 5675 5673 5671 5668 5665 5663 5660 5657 5654 5651 5649 5646 5643 5641 5638 5636 5633 5631 5628 5626 5623 5621 5618
5689 5689 5689 5689 5689 5688 5688 5687 5687 5686 5685 5684 5683 5681 5679 5678 5676 5674 5673 5671 5669 5667 5665 5662 5660 5657 5655 5652 5649 5647 5644 5641 5638 5635 5633 5630 5628 5626 5623 5621 5618 5616 5613 5611